Location: Dulzura
(32.6442°N, 116.7814°W)
Time: 15:06:00
(UTC+00:00)

Meteor 1-10 Rocket - Pass Details

Date: 07 December 2021
Orbit: 835 x 910 km, 81.3° (Epoch: 20 January)

Event Time Altitude Azimuth Distance (km) Brightness Sun altitude
Rises 12:59:29 0° 354° (N) 3,390 7.1 -19.9°
Reaches altitude 10° 13:01:54 10° 356° (N) 2,451 6.4 -19.4°
Maximum altitude 13:07:26 76° 81° (E) 866 4.3 -18.3°
Drops below altitude 10° 13:12:59 10° 168° (SSE) 2,452 7.0 -17.2°
Sets 13:15:24 0° 169° (S) 3,391 7.7 -16.7°
